Regional Weather Roundup
Issued by NWS

Home | Current Version | Previous Version | Graphics & Text | Print | Product List | Glossary On
Versions: 1 2 3 4 5 6 7 8 9 10 11 12 13 14 15 16 17 18 19 20 21 22 23 24 25 26 27 28 29 30 31 32 33 34 35 36 37 38 39 40 41 42 43 44 45 46 47 48 49 50
000
ASUS43 KMPX 102310
RWRMN
WEATHER ROUNDUP FOR MINNESOTA
NATIONAL WEATHER SERVICE TWIN CITIES/CHANHASSEN MN
600 PM CDT THU JUL 10 2014


NOTE: "FAIR" INDICATES FEW OR NO CLOUDS BELOW 12,000 FEET WITH NO
SIGNIFICANT WEATHER AND/OR OBSTRUCTIONS TO VISIBILITY. N/A MEANS
CURRENT SKY AND/OR WEATHER CONDITIONS ARE NOT AVAILABLE.

MNZ060>063-068>070-110000-
   Twin Cities Metro

CITY           SKY/WX    TMP DP  RH WIND       PRES   REMARKS
TWIN CITIES    CLOUDY    84  58  40 SW14      29.98F
ST PAUL        PTSUNNY   81  60  48 S10       29.98S
CRYSTAL        PTSUNNY   84  58  40 S13       29.96F
LAKEVILLE      PTSUNNY   81  61  50 S10       30.00S
EDEN PRAIRIE   PTSUNNY   81  60  48 S13G20    29.97F
SOUTH ST PAUL  PTSUNNY   82  58  44 S10G17    29.99S
LAKE ELMO      FAIR      81  63  54 SW14      30.01S
$$
MNZ001>005-007-008-013>017-022>024-027-028-110000-
   Northwest Minnesota

CITY           SKY/WX    TMP DP  RH WIND       PRES   REMARKS
BEMIDJI        CLOUDY    79  60  52 SE9       29.92F
HALLOCK        CLOUDY    79  61  53 S14       29.83F
ROSEAU         CLOUDY    75  63  64 S10       29.88F
WARROAD        PTSUNNY   77  61  57 S8        29.89F
THIEF RVR FALL CLOUDY    75  61  60 SE10      29.88S
CROOKSTON      CLOUDY    79  63  57 SE10      29.86F
FOSSTON        CLOUDY    79  63  57 SE8       29.91S
DETROIT LAKES  CLOUDY    77  61  57 S10       29.92S
MOORHEAD       CLOUDY    81  66  61 S8        29.87S
PARK RAPIDS    PTSUNNY   78  61  55 S12       29.92F
$$
MNZ006-009>011-018-025>026-110000-
   North Central Minnesota

CITY           SKY/WX    TMP DP  RH WIND       PRES   REMARKS
BAUDETTE       MOSUNNY   75  56  51 S10       29.92F
FLAG ISLAND    PTSUNNY   73  63  68 S10       29.88S
INTL FALLS     SUNNY     77  54  44 S8        29.93S
WASKISH        PTSUNNY   79  61  53 SE6       29.92F
BIG FORK       MOSUNNY   79  57  47 S8        29.96F
LONGVILLE      CLOUDY    75  63  64 SE7       29.94F
GRAND RAPIDS   PTSUNNY   75  57  53 S7        29.97F
CRANE LAKE     MOSUNNY   77  46  33 S7        29.96S
ORR            SUNNY     77  48  36 S6        29.94S
COOK           SUNNY     79  50  36 SW9       29.97S
$$
MNZ012-019>021-037-110000-
   Northeast Minnesota

CITY           SKY/WX    TMP DP  RH WIND       PRES   REMARKS
DULUTH         MOSUNNY   75  57  53 SE7       30.00S
ELY            SUNNY     79  50  36 S12       29.98S
HIBBING        SUNNY     80  54  40 SW8       29.97S
EVELETH        SUNNY     77  50  38 SW12G18   29.99S
DULUTH HARBOR  SUNNY     61  54  77 NE7       30.01S
TWO HARBORS    SUNNY     73  57  56 E6        29.98F
SILVER BAY     SUNNY     70  61  73 E6        29.99S
GRAND MARAIS     N/A     57  47  69 E5        30.02S
G MARAIS ARPRT SUNNY     66  50  55 S5        30.06S
$$
MNZ029>031-032-039>041-046>048-054>057-064-110000-
   West Central Minnesota

CITY           SKY/WX    TMP DP  RH WIND       PRES   REMARKS
FERGUS FALLS   CLOUDY    79  61  53 S12       29.88S
WHEATON        CLOUDY    77  63  61 SE10      29.88F
MORRIS         CLOUDY    77  66  69 S6        29.89S
ALEXANDRIA     CLOUDY    79  63  57 S10       29.94S
WADENA         CLOUDY    79  63  57 SE9       29.92F
GLENWOOD       CLOUDY    79  64  61 SE10G16   29.94S
APPLETON       CLOUDY    82  63  51 S9        29.89R
BENSON         CLOUDY    81  64  57 S13       29.90S
ORTONVILLE     CLOUDY    79  63  57 S14       29.89R
MADISON        LGT RAIN  81  64  57 S10       29.89S
WILLMAR        FAIR      82  61  47 S9        29.93F
$$
MNZ033>034-036-042>043-049>051-058-059-110000-
   Central Minnesota

CITY           SKY/WX    TMP DP  RH WIND       PRES   REMARKS
ST CLOUD       CLOUDY    82  62  50 S7        29.95F
SAUK CENTRE    MOCLDY    78  64  61 S10       29.94S
PAYNESVILLE    CLOUDY    77  61  58 SE8       29.94F HAZE
AITKIN         CLOUDY    81  64  57 S6        29.96S
PINE RIVER     CLOUDY    79  63  57 SE9       29.97F
BRAINERD       CLOUDY    83  61  47 SE7       29.95F HAZE
STAPLES        PTSUNNY   79  63  57 SE6       29.93F
LONG PRAIRIE   PTSUNNY   77  63  61 S8        29.95S
LITTLE FALLS   CLOUDY    81  59  47 SE7       29.94F
LITCHFIELD     PTSUNNY   81  61  50 SE8       29.95F
BUFFALO        PTSUNNY   82  58  45 S9        29.98S
MAPLE LAKE     PTSUNNY   81  63  54 S5        29.97S
$$
MNZ037-044-045-052-053-110000-
   East Central Minnesota

CITY           SKY/WX    TMP DP  RH WIND       PRES   REMARKS
PRINCETON      CLOUDY    82  61  47 S8        29.97S
MORA           CLOUDY    79  59  50 S9        29.99S
CAMBRIDGE      CLOUDY    84  64  51 S5        29.96S
RUSH CITY      PTSUNNY   79  65  61 SE5       29.98F
MOOSE LAKE     MOSUNNY   77  59  53 S3        29.97S
HINCKLEY       FAIR      79  64  61 S8        29.98F
CLOQUET        MOSUNNY   79  55  44 S7        30.00R
MCGREGOR       PTSUNNY   77  61  57 S7        29.99S
$$
MNZ071>073-080-081-089-090-097-098-110000-
   Southwest Minnesota

CITY           SKY/WX    TMP DP  RH WIND       PRES   REMARKS
MONTEVIDEO     CLOUDY    82  64  54 SW9G17    29.91F
GRANITE FALLS  CLOUDY    81  63  53 SE15      29.93S
CANBY          CLOUDY    77  66  69 SE7       29.90F
MARSHALL       CLOUDY    79  64  61 S15       29.92S
REDWOOD FALLS  CLOUDY    84  63  49 S16       29.93F
OLIVIA         CLOUDY    81  61  50 S9G18     29.93F
PIPESTONE      CLOUDY    77  64  65 S9        29.95R
WINDOM         CLOUDY    81  63  54 S14G22    29.97F
WORTHINGTON    CLOUDY    77  64  65 S15       29.97F
JACKSON        CLOUDY    79  61  53 S10       29.99F
TRACY          DRIZZLE   79  64  60 S8        29.96R
SLAYTON        CLOUDY    77  62  59 CALM      29.98R
$$
MNZ065>067-074>077-082>085-091>093-110000-
   South Central Minnesota

CITY           SKY/WX    TMP DP  RH WIND       PRES   REMARKS
MANKATO        PTSUNNY   81  57  44 S13G20    30.00R
NEW ULM        CLOUDY    82  63  51 S17       29.96F
ST JAMES       CLOUDY    82  61  47 SE14      29.99S
FAIRMONT       CLOUDY    81  59  47 S13       30.00S
GLENCOE        CLOUDY    84  56  38 S10G16    29.97S
FARIBAULT      PTSUNNY   84  52  32 S14       30.01F
OWATONNA       PTSUNNY   81  55  41 S10       30.02S
WASECA         PTSUNNY   79  52  38 S13G18    30.03S
ALBERT LEA     PTSUNNY   81  55  41 S9        30.03S
$$
MNZ078>079-086>088-094>096-110000-
   Southeast Minnesota

CITY           SKY/WX    TMP DP  RH WIND       PRES   REMARKS
ROCHESTER      MOSUNNY   78  60  53 S13       30.06S
RED WING       PTSUNNY   84  61  45 S7        30.00S
STANTON        PTSUNNY   82  59  45 S9        29.99F
DODGE CENTER   PTSUNNY   81  61  50 S14       30.04F
WINONA         MOSUNNY   81  61  50 S7        30.03S
AUSTIN         PTSUNNY   79  55  44 S12G17    30.04S
PRESTON        MOSUNNY   78  61  54 S13       30.07S
$$
ABBREVIATIONS USED IN REMARKS
   TC - TEMPERATURES IN CELSIUS
  WCI - WIND CHILL INDEX
   HX - HEAT INDEX
  VSB - VISIBILITY
$$


USA.gov is the U.S. government's official web portal to all federal, state and local government web resources and services.